K5MJM Weather Reports


time (UTC)temp
C
wind
direction
speed
KPH
gust
KPH
rain 1hr
cm
rain 24hr
cm
rain mn
cm
humidity
%
barometer
mb
20260906205317 39 180 3.2 4.8 0.00 0.00 0.00 29 1013.8
20260906204317 39 90 9.7 14.5 0.00 0.00 0.00 27 1013.9
20260906203318 39 225 8.0 12.9 0.00 0.00 0.00 26 1014.1
20260906202358 39 203 3.2 8.0 0.00 0.00 0.00 26 1014.1
20260906201317 39 68 4.8 14.5 0.00 0.00 0.00 29 1014.3
20260906200317 39 113 12.9 17.7 0.00 0.00 0.00 28 1014.4
20260906195317 38 203 6.4 14.5 0.00 0.00 0.00 28 1014.7
20260906194317 39 158 11.3 17.7 0.00 0.00 0.00 30 1014.8
20260906193317 39 135 12.9 19.3 0.00 0.00 0.00 30 1015.0
20260906192317 38 180 11.3 16.1 0.00 0.00 0.00 30 1015.0
20260906191317 38 225 4.8 11.3 0.00 0.00 0.00 32 1015.1
20260906190317 38 180 11.3 16.1 0.00 0.00 0.00 32 1015.2
20260906185358 38 158 8.0 11.3 0.00 0.00 0.00 32 1015.4
20260906184318 39 135 12.9 17.7 0.00 0.00 0.00 31 1015.6
20260906183338 38 135 8.0 14.5 0.00 0.00 0.00 33 1015.7
20260906182317 38 248 8.0 20.9 0.00 0.00 0.00 33 1015.7
20260906181317 38 225 4.8 6.4 0.00 0.00 0.00 34 1015.9
20260906180318 38 158 9.7 12.9 0.00 0.00 0.00 35 1016.1
20260906175337 37 180 4.8 9.7 0.00 0.00 0.00 34 1016.2
20260906174317 37 158 9.7 12.9 0.00 0.00 0.00 36 1016.5
20260906173318 37 180 9.7 16.1 0.00 0.00 0.00 35 1016.8
20260906172317 37 270 1.6 6.4 0.00 0.00 0.00 36 1016.8
20260906171319 37 135 11.3 16.1 0.00 0.00 0.00 38 1017.0
20260906170317 36 113 3.2 9.7 0.00 0.00 0.00 38 1017.1
20260906165317 35 225 4.8 11.3 0.00 0.00 0.00 39 1017.1
20260906164318 35 0.0 1.6 0.00 0.00 0.00 39 1017.1
20260906163337 35 180 3.2 4.8 0.00 0.00 0.00 39 1017.3
20260906162318 35 180 1.6 4.8 0.00 0.00 0.00 40 1017.3
20260906161317 35 203 1.6 4.8 0.00 0.00 0.00 40 1017.3
20260906160317 35 270 1.6 9.7 0.00 0.00 0.00 39 1017.3
20260906155317 35 225 3.2 8.0 0.00 0.00 0.00 40 1017.1
20260906154359 35 225 4.8 11.3 0.00 0.00 0.00 41 1017.1
20260906153317 34 315 4.8 9.7 0.00 0.00 0.00 42 1017.1
20260906152317 33 225 4.8 8.0 0.00 0.00 0.00 44 1017.0
20260906151317 33 203 3.2 6.4 0.00 0.00 0.00 45 1017.0
20260906150318 33 225 1.6 4.8 0.00 0.00 0.00 46 1017.0
20260906145317 32 225 1.6 4.8 0.00 0.00 0.00 47 1016.9
20260906144319 32 0.0 0.0 0.00 0.00 0.00 48 1017.0
20260906143318 31 248 1.6 4.8 0.00 0.00 0.00 49 1016.8
20260906142319 31 225 3.2 9.7 0.00 0.00 0.00 50 1016.8
20260906141338 30 0.0 1.6 0.00 0.00 0.00 50 1016.8
20260906140317 30 225 3.2 11.3 0.00 0.00 0.00 51 1016.7
20260906135317 29 0.0 3.2 0.00 0.00 0.00 52 1016.5
20260906134317 28 248 3.2 11.3 0.00 0.00 0.00 53 1016.4
20260906133317 28 0.0 0.0 0.00 0.00 0.00 54 1016.4
20260906132337 27 180 1.6 3.2 0.00 0.00 0.00 55 1016.4
20260906131319 27 158 1.6 3.2 0.00 0.00 0.00 57 1016.3
20260906130317 26 248 1.6 4.8 0.00 0.00 0.00 58 1016.1
20260906125319 26 180 4.8 9.7 0.00 0.00 0.00 58 1016.0
20260906124438 26 180 4.8 9.7 0.00 0.00 0.00 58 1015.8
20260906123319 26 203 3.2 8.0 0.00 0.00 0.00 58 1015.7
20260906122317 26 158 3.2 8.0 0.00 0.00 0.00 58 1015.6
20260906121317 26 203 3.2 4.8 0.00 0.00 0.00 57 1015.6
20260906120319 26 180 1.6 4.8 0.00 0.00 0.00 57 1015.5
20260906115317 26 203 3.2 9.7 0.00 0.00 0.00 57 1015.5
20260906114337 26 203 4.8 8.0 0.00 0.00 0.00 56 1015.4
20260906113339 26 180 4.8 8.0 0.00 0.00 0.00 56 1015.3
20260906112317 26 203 3.2 6.4 0.00 0.00 0.00 56 1015.1
20260906111319 26 180 6.4 9.7 0.00 0.00 0.00 56 1015.0
20260906110337 26 203 6.4 11.3 0.00 0.00 0.00 56 1015.0
20260906105317 26 180 4.8 9.7 0.00 0.00 0.00 56 1015.0
20260906104339 26 180 3.2 8.0 0.00 0.00 0.00 56 1014.8
20260906103317 26 203 4.8 6.4 0.00 0.00 0.00 55 1014.9
20260906102319 27 203 3.2 6.4 0.00 0.00 0.00 54 1014.9
20260906101317 27 248 3.2 6.4 0.00 0.00 0.00 53 1015.0
20260906100317 27 203 3.2 8.0 0.00 0.00 0.00 53 1014.8
20260906095317 27 225 4.8 6.4 0.00 0.00 0.00 53 1014.9
20260906094319 27 225 1.6 4.8 0.00 0.00 0.00 53 1014.9
20260906093319 27 0.0 1.6 0.00 0.00 0.00 52 1014.9
20260906092319 27 225 3.2 8.0 0.00 0.00 0.00 52 1014.9
20260906091319 27 203 3.2 4.8 0.00 0.00 0.00 52 1014.9
20260906090317 27 203 1.6 8.0 0.00 0.00 0.00 52 1014.9
20260906085339 27 180 4.8 8.0 0.00 0.00 0.00 52 1014.8
20260906084317 27 203 3.2 4.8 0.00 0.00 0.00 51 1014.7
20260906083319 27 225 3.2 8.0 0.00 0.00 0.00 51 1014.7
20260906082339 27 225 3.2 8.0 0.00 0.00 0.00 51 1014.7
20260906081317 27 203 3.2 4.8 0.00 0.00 0.00 51 1014.6
20260906080319 27 225 1.6 1.6 0.00 0.00 0.00 51 1014.7
20260906075319 28 225 1.6 4.8 0.00 0.00 0.00 50 1014.9
20260906074317 28 203 1.6 4.8 0.00 0.00 0.00 50 1014.7
20260906073319 28 180 3.2 4.8 0.00 0.00 0.00 50 1014.7
20260906072317 28 180 4.8 6.4 0.00 0.00 0.00 50 1014.8
20260906071319 28 203 6.4 8.0 0.00 0.00 0.00 50 1014.8
20260906070339 28 225 3.2 4.8 0.00 0.00 0.00 50 1014.8
20260906065319 28 203 3.2 6.4 0.00 0.00 0.00 49 1014.8
20260906064319 28 203 1.6 4.8 0.00 0.00 0.00 49 1014.8
20260906063319 28 248 3.2 8.0 0.00 0.00 0.00 48 1014.8
20260906062319 28 203 3.2 4.8 0.00 0.00 0.00 48 1014.9
20260906061319 29 203 3.2 6.4 0.00 0.00 0.00 48 1014.9
20260906060319 29 225 4.8 8.0 0.00 0.00 0.00 47 1014.9
20260906055319 29 203 4.8 8.0 0.00 0.00 0.00 47 1014.8
20260906054319 29 203 3.2 8.0 0.00 0.00 0.00 46 1014.8
20260906053318 30 203 3.2 6.4 0.00 0.00 0.00 46 1014.9
20260906052319 30 225 3.2 6.4 0.00 0.00 0.00 45 1014.8
20260906051319 30 203 4.8 6.4 0.00 0.00 0.00 45 1014.7
20260906050319 30 180 3.2 4.8 0.00 0.00 0.00 45 1014.6
20260906045318 30 225 3.2 6.4 0.00 0.00 0.00 45 1014.4
20260906044338 30 203 4.8 9.7 0.00 0.00 0.00 45 1014.5
20260906043318 30 180 4.8 8.0 0.00 0.00 0.00 45 1014.6
20260906042358 30 203 3.2 4.8 0.00 0.00 0.00 44 1014.6
20260906041317 31 180 4.8 8.0 0.00 0.00 0.00 44 1014.8
20260906040318 31 180 6.4 9.7 0.00 0.00 0.00 43 1014.7
20260906035318 31 203 6.4 9.7 0.00 0.00 0.00 44 1014.6
20260906034318 31 203 6.4 11.3 0.00 0.00 0.00 44 1014.5
20260906033318 31 158 6.4 11.3 0.00 0.00 0.00 44 1014.5
20260906032318 31 180 4.8 8.0 0.00 0.00 0.00 44 1014.5
20260906031318 31 180 4.8 6.4 0.00 0.00 0.00 43 1014.5
20260906030317 31 180 4.8 8.0 0.00 0.00 0.00 43 1014.4
20260906025318 32 158 3.2 6.4 0.00 0.00 0.00 42 1014.4
20260906024318 32 158 8.0 11.3 0.00 0.00 0.00 41 1014.2
20260906023318 32 158 6.4 9.7 0.00 0.00 0.00 41 1014.2
20260906022338 32 135 6.4 11.3 0.00 0.00 0.00 40 1013.9
20260906021318 32 158 4.8 9.7 0.00 0.00 0.00 40 1013.8
20260906020318 32 158 4.8 8.0 0.00 0.00 0.00 39 1013.7
20260906015318 32 158 3.2 6.4 0.00 0.00 0.00 39 1013.7
20260906014318 33 158 4.8 9.7 0.00 0.00 0.00 39 1013.5
20260906013338 33 158 4.8 8.0 0.00 0.00 0.00 38 1013.3
20260906012318 33 158 4.8 8.0 0.00 0.00 0.00 37 1013.1
20260906011318 34 158 3.2 6.4 0.00 0.00 0.00 36 1012.9
20260906010317 34 158 1.6 6.4 0.00 0.00 0.00 36 1013.0
20260906005318 35 180 3.2 4.8 0.00 0.00 0.00 35 1012.9
20260906004318 35 158 8.0 9.7 0.00 0.00 0.00 34 1012.7
20260906003318 35 158 9.7 14.5 0.00 0.00 0.00 34 1012.6
20260906002318 36 203 6.4 9.7 0.00 0.00 0.00 34 1012.6
20260906001317 36 158 9.7 14.5 0.00 0.00 0.00 34 1012.7
20260906000318 36 158 11.3 17.7 0.00 0.00 0.00 33 1012.6
20260905235317 36 203 4.8 9.7 0.00 0.00 0.00 32 1012.5
20260905234318 36 180 4.8 8.0 0.00 0.00 0.00 32 1012.4
20260905233318 36 203 9.7 12.9 0.00 0.00 0.00 31 1012.3
20260905232317 37 180 8.0 19.3 0.00 0.00 0.00 32 1012.4
20260905231318 37 180 9.7 14.5 0.00 0.00 0.00 31 1012.3
20260905230319 37 203 11.3 17.7 0.00 0.00 0.00 30 1012.5
20260905225338 37 158 11.3 16.1 0.00 0.00 0.00 29 1012.4
20260905224338 37 158 11.3 16.1 0.00 0.00 0.00 29 1012.4
20260905223318 37 135 8.0 14.5 0.00 0.00 0.00 29 1012.4
20260905222318 37 158 17.7 22.5 0.00 0.00 0.00 29 1012.3
20260905221318 38 158 8.0 14.5 0.00 0.00 0.00 29 1012.5
20260905220318 37 135 9.7 17.7 0.00 0.00 0.00 30 1012.6
20260905215317 38 158 9.7 16.1 0.00 0.00 0.00 28 1012.6
20260905214318 38 158 11.3 22.5 0.00 0.00 0.00 29 1012.8
20260905213338 38 113 14.5 22.5 0.00 0.00 0.00 29 1012.9
20260905212318 38 113 11.3 17.7 0.00 0.00 0.00 30 1013.2
20260905211318 38 180 12.9 17.7 0.00 0.00 0.00 29 1013.2
20260905210317 38 113 17.7 22.5 0.00 0.00 0.00 30 1013.5